Temperature
16 13 13 14 14 15 15 15 15 15 16 16 15 15 15 16 15 14 15 15 15 15 15 15 15 15 15 14 14 13 13 12 12 11 11 10 10 10 10 9 9 9 9 9
13 13 14 15 15 15 15 14 14 15 16 16 15 14 15 14 14 15 15 15 15 14 14 14 14 14 14 14 14 13 13 12 12 11 11 10 10 10 10 9 9 9 9 9
13 14 15 15 14 15 15 15 15 15 15 15 15 14 14 14 15 15 15 15 15 15 14 14 14 14 14 14 13 13 13 12 11 11 11 10 10 10 9 9 9 9 9 9
13 14 15 15 15 15 14 15 15 15 14 13 14 13 13 14 13 12 13 13 14 14 14 14 14 13 13 13 13 13 12 12 12 11 11 11 10 10 10 10 9 9 9 8
13 14 14 14 15 15 15 16 16 15 14 13 13 13 13 13 13 12 11 13 14 14 14 14 14 13 13 13 13 12 12 12 12 11 11 11 11 10 10 10 9 9 8 8
13 15 15 15 15 15 15 15 14 11 11 12 12 12 12 12 13 13 11 12 13 14 14 14 13 13 12 12 12 12 12 12 12 11 11 11 10 10 10 9 9 9 8 8
14 15 15 15 15 15 14 13 12 12 11 11 12 12 13 14 13 13 13 12 13 13 13 13 13 13 12 12 12 12 12 12 11 11 11 11 10 10 9 9 9 8 8 7
12 13 14 14 14 13 13 13 12 12 11 12 13 12 13 14 14 15 15 13 13 13 13 14 13 13 13 12 12 12 12 12 11 11 11 10 10 9 9 8 8 8 7 7
12 12 14 14 14 13 12 12 12 12 12 12 12 13 14 15 13 13 13 12 12 13 13 14 13 13 13 12 12 12 11 11 11 10 10 10 9 9 8 8 7 7 7 6
12 13 14 14 14 14 13 12 11 11 12 11 12 13 14 15 14 12 11 11 12 12 13 13 13 13 13 12 12 11 11 11 10 10 10 9 9 8 8 7 7 7 6 6
13 12 13 13 13 12 13 13 12 11 11 11 12 13 14 14 13 12 11 12 12 13 13 13 13 13 12 12 11 11 10 10 10 9 9 8 8 8 7 7 6 6 6 5
12 11 11 12 13 13 12 12 12 11 11 10 10 12 14 13 13 12 12 13 13 13 14 13 13 12 12 11 11 10 10 9 9 9 8 8 7 7 7 6 6 6 5 5
12 11 11 12 12 12 12 12 12 12 11 10 10 13 14 13 13 14 13 14 13 13 13 13 12 12 11 11 10 10 9 9 9 8 8 7 7 6 6 6 5 5 5 4
13 11 12 12 12 12 12 12 12 12 11 10 11 13 14 14 13 13 14 14 14 14 13 13 12 12 11 10 10 9 9 9 8 8 7 7 6 6 6 5 5 4 4 4
12 11 12 12 13 12 12 13 12 12 12 11 12 12 14 13 12 14 15 14 13 13 13 13 12 11 11 10 9 9 9 8 8 7 7 6 6 5 5 5 4 4 3 3
11 12 12 13 13 13 13 13 12 12 12 12 12 12 13 14 14 14 14 13 13 13 13 13 12 11 11 10 9 9 8 8 7 7 6 6 5 5 5 4 4 3 3 3
10 11 11 11 13 13 12 12 12 12 12 12 12 14 14 13 11 13 14 13 13 14 13 12 12 11 11 10 9 8 8 7 7 6 6 5 5 4 4 4 3 3 2 2
10 10 9 9 11 10 12 13 13 13 13 12 12 12 12 12 13 14 14 14 14 13 13 12 11 11 10 9 8 8 7 7 6 6 5 5 4 4 3 3 3 2 2 1
10 10 8 8 9 10 11 12 12 12 12 12 12 11 11 11 11 11 13 13 13 13 13 12 11 10 9 9 8 7 7 6 6 5 5 4 4 3 3 2 2 2 1 1
8 9 8 7 9 9 11 13 13 13 12 12 11 10 9 10 9 10 12 13 12 12 11 11 10 9 9 8 7 6 6 5 5 5 4 4 3 3 2 2 1 1 0 0
8 8 7 7 8 8 10 12 12 12 12 13 12 11 10 9 11 12 12 12 11 11 10 10 9 8 8 7 6 6 5 5 4 4 4 3 3 2 2 1 1 0 -0 -0
8 7 7 7 7 9 10 10 11 11 12 13 13 13 12 12 12 12 11 11 10 10 9 9 8 7 7 6 6 5 5 4 4 3 3 2 2 2 1 1 0 -0 -1 -1
8 9 9 9 10 11 12 12 13 13 13 13 13 13 12 12 11 11 10 10 9 9 8 7 7 6 6 5 5 5 4 3 3 3 2 2 2 1 1 0 -0 -1 -1 -2
7 8 8 8 8 10 11 12 13 13 13 13 13 12 12 11 11 10 9 9 8 8 7 6 6 6 5 5 4 4 3 3 2 2 2 1 1 1 0 -0 -1 -1 -2 -2
8 7 7 8 9 9 11 12 13 12 12 12 12 12 11 11 10 9 9 8 7 7 6 6 5 5 4 4 4 3 2 2 2 1 1 1 0 -0 -1 -1 -1 -2 -2 -3
7 7 8 9 9 9 11 13 12 12 12 11 11 11 10 10 9 9 8 7 7 6 5 5 4 4 4 3 3 2 2 1 1 1 1 0 -0 -1 -1 -2 -2 -2 -3 -3
Wind_Speed
4 4 7 11 11 8 6 6 8 8 6 6 10 12 12 9 7 8 9 8 8 6 3 4 5 6 7 7 8 8 9 8 8 5 5 4 3 2 2 3 4 4 5 5
3 8 12 9 7 7 7 8 8 8 4 4 8 12 12 10 10 11 14 12 10 8 6 5 5 5 6 6 7 8 8 8 7 5 4 3 4 2 2 1 1 1 2 3
11 8 8 8 8 8 8 8 7 7 5 5 5 9 8 6 5 7 10 11 11 12 10 8 6 6 6 6 7 7 8 8 7 7 5 5 4 3 2 1 1 2 3 3
8 8 5 7 8 9 8 8 7 5 2 5 1 6 8 6 4 7 10 10 11 10 9 8 8 7 6 5 6 8 8 8 7 7 7 6 4 3 2 1 1 2 2 2
9 7 9 10 10 10 9 6 4 3 3 4 3 5 9 3 7 10 11 12 12 12 12 11 9 8 6 6 7 7 8 7 6 7 7 7 4 3 1 1 0 1 2 2
8 5 8 10 6 7 6 4 4 5 3 4 7 8 8 6 10 10 11 13 13 12 11 10 8 7 6 6 6 7 8 6 6 7 7 7 7 5 3 1 0 1 2 2
5 6 4 5 5 3 5 5 2 3 1 7 5 6 10 10 9 12 18 18 14 13 13 12 11 10 8 8 7 7 8 6 6 7 6 6 6 5 4 3 2 1 1 1
8 7 8 8 9 8 7 9 7 6 6 6 3 8 9 7 7 8 12 14 14 13 13 14 13 11 10 10 9 8 8 7 6 6 6 5 5 4 3 3 2 2 2 2
10 8 3 6 6 12 8 7 8 5 3 4 7 7 8 3 2 5 11 14 16 16 14 14 13 12 11 11 9 9 9 7 7 6 6 5 4 4 3 2 1 1 2 2
9 6 2 1 5 3 8 8 5 6 5 5 7 6 6 6 5 6 12 16 16 14 13 13 13 13 11 10 9 9 9 8 7 6 5 4 4 3 2 1 1 1 2 2
8 6 2 2 8 10 7 5 6 6 5 6 5 7 6 8 8 11 14 15 17 17 16 15 13 12 11 9 9 9 8 7 7 6 5 4 3 2 2 1 1 2 2 3
8 6 5 8 5 6 9 9 9 6 6 6 4 8 6 5 7 9 11 11 12 14 14 13 12 11 10 10 10 9 9 8 7 6 5 4 3 2 1 1 3 3 3 4
11 8 5 1 1 3 6 7 9 6 4 5 5 8 5 3 2 6 9 10 11 11 11 11 11 12 12 11 10 9 9 8 7 6 5 4 2 2 2 3 4 4 4 5
10 7 8 11 7 8 7 8 10 9 6 7 9 9 7 6 6 7 9 10 11 12 13 13 12 12 12 11 11 10 8 8 7 6 5 4 3 3 4 4 5 5 5 6
8 7 7 7 6 6 8 9 11 13 13 11 10 11 13 10 10 10 9 9 9 10 12 14 14 12 11 10 10 9 8 7 6 6 4 4 4 4 4 5 6 6 6 7
6 7 7 5 6 7 7 9 11 12 11 12 11 12 11 8 6 7 8 10 12 12 13 13 12 12 13 12 11 9 8 7 6 5 5 4 4 4 5 6 6 7 7 8
7 7 6 5 3 2 8 10 11 8 9 11 14 16 9 6 8 10 10 11 13 13 12 13 13 13 13 12 11 10 8 6 6 5 4 4 4 5 6 7 7 8 8 8
9 8 5 4 4 8 9 6 9 10 11 11 10 8 7 9 7 5 7 10 10 10 10 11 10 10 9 8 8 8 7 6 5 4 4 5 5 6 7 7 8 8 7 8
6 8 6 5 6 7 8 6 7 9 9 9 11 9 5 3 2 3 3 6 8 8 8 9 9 9 9 9 8 8 6 5 4 5 6 6 6 7 7 8 9 8 8 9
4 5 6 6 6 8 9 5 4 5 7 7 8 9 7 7 3 5 3 5 5 6 7 8 8 8 9 8 8 7 5 5 6 7 7 7 6 7 8 9 9 8 8 9
5 4 6 7 7 8 8 4 6 6 9 4 6 8 10 9 7 4 6 5 6 7 8 9 10 9 8 7 7 6 5 6 7 6 6 6 7 8 9 9 8 8 9 9
11 8 8 7 6 10 7 8 9 9 3 4 5 7 8 6 4 6 7 7 8 8 8 8 8 7 6 6 6 5 6 6 5 5 6 7 8 8 7 8 9 8 9 9
10 11 9 11 10 5 8 10 7 6 6 6 6 6 8 7 6 7 7 8 8 8 8 6 7 6 4 5 6 6 6 5 5 6 7 8 8 8 8 8 9 8 8 8
6 4 6 6 8 6 6 5 5 6 6 6 6 7 9 8 8 8 8 8 7 6 6 6 6 6 4 4 5 6 5 5 5 7 8 8 8 8 8 7 7 7 8 9
9 8 6 6 6 3 5 8 8 6 5 5 5 6 8 9 8 9 8 8 7 6 5 5 6 6 5 4 5 5 5 5 6 8 8 8 8 8 8 8 8 9 8 10
6 8 9 9 8 8 7 7 8 8 8 8 7 5 5 7 8 8 8 7 7 6 5 5 5 5 5 5 6 6 6 6 6 7 8 7 7 7 7 8 10 14 15 21
Wind_Direction
157 133 198 208 202 209 220 245 266 265 257 218 238 255 261 248 212 196 191 184 176 166 146 99 90 96 102 110 119 128 133 142 141 139 140 136 137 134 133 163 184 196 208 216
118 225 221 211 208 212 229 252 268 285 285 233 258 266 260 238 214 197 188 185 178 162 146 120 103 99 110 122 122 123 129 136 139 138 134 129 127 124 123 120 139 219 231 236
191 222 212 204 219 220 231 229 244 261 302 306 296 295 276 259 214 192 187 181 176 168 161 151 134 124 122 129 136 133 129 128 127 125 114 96 80 68 61 39 330 304 280 263
221 237 217 204 213 197 236 230 224 243 269 285 282 289 282 256 220 196 189 182 179 170 159 156 150 144 144 146 135 128 126 122 123 124 128 132 137 154 190 202 256 307 313 294
225 213 203 215 218 194 217 215 204 214 205 281 245 233 279 246 225 218 199 190 183 174 165 162 160 154 146 141 134 129 122 120 123 123 131 131 133 152 151 114 9 336 342 341
225 230 200 206 206 188 168 94 47 46 81 273 227 198 272 228 218 206 197 193 184 174 165 156 151 143 137 136 132 132 127 125 126 125 129 138 146 149 137 125 105 342 338 341
239 245 215 155 133 130 127 112 7 318 307 249 217 200 249 247 227 199 192 190 183 174 165 160 160 160 157 154 151 145 140 138 138 133 134 141 147 149 154 161 170 192 316 316
195 241 211 187 171 172 179 161 179 213 231 272 242 223 252 269 260 207 183 175 173 175 173 171 171 169 167 166 162 157 152 149 148 142 139 138 139 140 151 162 171 198 230 255
186 228 247 202 174 148 158 197 185 162 248 268 272 276 300 296 15 144 156 165 179 182 180 177 174 173 172 171 170 166 159 154 154 149 141 140 141 142 154 164 169 215 255 269
165 203 241 182 111 153 161 163 136 163 201 242 273 266 253 259 228 180 177 183 187 184 183 180 179 178 176 173 168 163 159 158 156 152 151 151 156 157 158 156 229 275 286 292
161 166 200 158 184 184 160 172 177 177 184 184 251 269 234 238 214 199 199 193 188 187 188 185 183 179 171 165 162 162 161 154 155 156 153 147 154 151 145 181 252 270 279 290
162 145 194 229 235 193 183 185 165 178 223 198 202 267 280 267 222 204 203 198 194 192 188 183 177 171 170 169 167 165 163 160 163 159 152 153 155 152 177 252 270 275 283 287
159 149 147 322 285 191 203 204 192 178 160 182 193 259 302 330 225 207 203 200 194 190 184 178 176 177 177 173 170 167 165 163 160 154 151 156 172 202 240 260 273 279 282 288
149 150 177 193 204 184 199 208 193 182 203 222 223 247 277 270 250 231 214 204 196 191 186 183 183 182 177 172 169 165 164 162 158 155 159 179 210 231 247 261 271 276 279 283
143 174 195 212 215 175 199 206 195 201 210 214 233 235 247 240 232 229 218 203 193 191 189 187 184 179 172 167 166 164 163 162 158 159 175 206 226 240 254 266 272 275 277 278
135 166 178 216 214 202 222 225 210 215 221 228 246 258 250 246 226 222 213 198 198 198 194 187 179 174 173 172 169 165 165 166 161 172 199 218 234 250 261 266 270 275 277 277
149 146 156 219 227 193 245 222 209 212 212 204 229 245 249 232 225 222 212 202 201 199 190 182 180 178 176 173 167 169 170 164 168 188 211 229 240 255 263 268 272 273 275 275
149 146 149 169 158 225 241 225 208 217 234 219 227 244 234 226 225 230 206 195 199 192 183 179 172 168 163 158 157 155 154 161 178 203 228 241 246 257 266 270 270 271 270 272
147 144 139 157 205 258 283 245 195 203 250 230 227 236 226 168 88 314 239 191 193 186 174 167 161 154 148 152 153 148 155 168 191 222 239 244 245 255 264 268 269 271 273 275
91 124 139 154 186 227 239 230 182 152 262 246 207 208 184 140 171 248 211 162 154 146 143 142 137 135 145 153 148 150 170 189 219 233 241 247 248 252 259 264 269 271 270 273
145 145 169 178 211 249 246 210 125 178 241 230 188 188 173 185 202 189 142 133 136 133 134 136 138 145 155 154 148 164 189 218 231 238 248 256 255 255 259 266 268 272 276 278
174 178 189 174 204 244 219 151 184 214 195 173 176 177 178 184 143 139 144 142 140 135 136 139 140 146 153 155 158 184 218 233 240 247 256 261 263 265 270 268 273 275 277 281
195 191 186 193 213 229 186 197 207 172 176 185 178 179 162 157 164 161 158 155 151 147 146 144 145 150 166 176 176 202 232 239 245 254 261 266 269 268 267 267 275 281 279 280
234 183 166 216 247 237 220 219 203 190 191 185 175 166 162 168 171 168 163 162 157 153 154 149 150 165 192 206 208 219 237 241 246 258 266 269 272 275 272 268 269 273 276 279
199 171 181 220 246 238 239 219 207 188 170 161 159 169 173 165 169 171 170 170 168 163 160 159 170 189 211 222 236 242 243 244 254 262 268 272 271 272 277 273 267 272 263 267
187 174 181 211 207 192 220 215 184 176 185 179 166 162 163 168 170 167 170 170 166 166 163 170 186 205 224 234 249 254 251 246 253 266 271 271 273 274 275 281 287 280 279 286
Height
1523 1529 1531 1529 1529 1530 1531 1533 1533 1527 1519 1520 1520 1517 1511 1508 1509 1509 1509 1510 1511 1512 1513 1514 1514 1515 1517 1518 1520 1523 1525 1528 1531 1534 1536 1538 1540 1542 1543 1544 1544 1545 1545 1544
1527 1528 1521 1521 1524 1527 1529 1532 1530 1524 1517 1518 1518 1514 1506 1503 1503 1502 1503 1505 1508 1509 1511 1512 1514 1515 1516 1518 1520 1522 1524 1527 1529 1532 1535 1537 1539 1540 1541 1542 1542 1542 1542 1541
1523 1518 1515 1520 1523 1526 1526 1528 1526 1524 1519 1516 1517 1514 1505 1498 1497 1498 1500 1502 1504 1506 1508 1510 1512 1514 1515 1517 1519 1521 1523 1526 1528 1531 1533 1535 1537 1538 1539 1539 1539 1539 1538 1538
1518 1513 1514 1516 1518 1520 1525 1519 1520 1521 1525 1528 1521 1528 1507 1499 1497 1496 1497 1499 1501 1504 1506 1508 1511 1513 1515 1517 1519 1521 1523 1525 1527 1529 1531 1533 1534 1535 1536 1536 1536 1536 1535 1535
1513 1509 1511 1514 1513 1514 1517 1514 1516 1517 1522 1527 1524 1527 1510 1499 1498 1495 1494 1495 1498 1501 1504 1506 1509 1512 1514 1516 1518 1520 1522 1524 1526 1528 1530 1531 1532 1533 1534 1534 1534 1533 1533 1532
1507 1503 1504 1505 1505 1508 1511 1515 1519 1526 1528 1534 1523 1527 1513 1499 1490 1487 1490 1492 1495 1498 1502 1505 1508 1511 1513 1515 1517 1520 1521 1523 1525 1527 1528 1529 1530 1531 1531 1531 1531 1530 1530 1529
1506 1502 1500 1501 1507 1509 1512 1524 1535 1534 1539 1533 1516 1519 1505 1483 1479 1479 1482 1486 1491 1495 1499 1502 1505 1508 1511 1514 1516 1518 1520 1522 1524 1526 1527 1528 1528 1529 1529 1528 1528 1527 1526 1525
1510 1509 1499 1498 1501 1508 1512 1518 1532 1536 1535 1525 1512 1514 1492 1478 1474 1474 1477 1483 1488 1493 1496 1499 1502 1506 1509 1512 1515 1517 1519 1521 1523 1524 1525 1526 1526 1526 1526 1526 1525 1524 1523 1522
1504 1504 1494 1493 1493 1499 1510 1514 1513 1523 1522 1524 1514 1500 1485 1475 1474 1474 1477 1482 1486 1489 1493 1496 1500 1504 1507 1510 1513 1515 1517 1519 1521 1522 1523 1524 1524 1524 1524 1523 1522 1521 1520 1518
1492 1500 1494 1492 1493 1495 1499 1504 1516 1522 1527 1528 1515 1502 1492 1479 1476 1477 1478 1480 1482 1486 1490 1494 1497 1501 1504 1508 1511 1513 1516 1517 1519 1520 1521 1521 1521 1521 1520 1520 1519 1517 1516 1514
1486 1495 1497 1494 1495 1498 1500 1504 1506 1513 1517 1523 1519 1503 1478 1475 1472 1474 1474 1476 1479 1482 1486 1490 1494 1498 1502 1505 1508 1510 1513 1515 1516 1517 1518 1518 1518 1518 1517 1516 1515 1513 1511 1509
1481 1492 1498 1494 1489 1488 1492 1494 1501 1512 1511 1512 1514 1501 1471 1470 1469 1470 1472 1474 1477 1480 1483 1487 1491 1495 1498 1501 1504 1507 1510 1512 1513 1514 1515 1515 1515 1514 1513 1512 1511 1509 1507 1505
1476 1488 1498 1497 1495 1491 1490 1490 1491 1496 1502 1509 1511 1496 1471 1469 1469 1470 1471 1472 1475 1478 1481 1485 1488 1491 1494 1498 1501 1504 1506 1508 1510 1511 1512 1512 1511 1510 1509 1508 1506 1504 1502 1499
1466 1479 1485 1490 1486 1484 1486 1485 1485 1492 1500 1502 1497 1486 1474 1470 1469 1469 1469 1470 1472 1475 1477 1480 1484 1487 1491 1494 1497 1500 1502 1505 1506 1507 1508 1508 1507 1506 1505 1503 1501 1499 1497 1494
1462 1473 1475 1474 1472 1476 1477 1476 1479 1484 1484 1489 1483 1479 1470 1467 1466 1465 1465 1467 1469 1471 1473 1476 1479 1482 1486 1490 1493 1496 1499 1501 1502 1503 1503 1503 1503 1502 1500 1498 1496 1494 1491 1488
1461 1468 1471 1471 1470 1472 1473 1472 1473 1475 1475 1477 1475 1471 1460 1461 1461 1462 1462 1463 1464 1466 1468 1471 1475 1478 1482 1485 1489 1492 1494 1497 1498 1499 1499 1499 1498 1496 1495 1493 1491 1488 1485 1482
1461 1466 1473 1477 1471 1471 1476 1468 1467 1468 1466 1467 1469 1461 1456 1458 1458 1457 1457 1458 1459 1461 1464 1467 1470 1474 1477 1481 1485 1488 1490 1492 1494 1494 1494 1494 1492 1491 1489 1487 1485 1482 1479 1475
1459 1465 1473 1479 1476 1484 1466 1455 1456 1458 1457 1456 1455 1452 1452 1452 1452 1453 1453 1455 1456 1459 1461 1464 1468 1471 1475 1478 1482 1485 1487 1488 1489 1490 1489 1488 1487 1485 1483 1481 1478 1475 1472 1468
1452 1461 1474 1481 1479 1473 1462 1453 1453 1456 1455 1449 1449 1449 1449 1450 1451 1451 1452 1453 1455 1457 1459 1462 1465 1469 1472 1475 1478 1481 1483 1484 1484 1485 1484 1483 1481 1479 1477 1474 1471 1468 1464 1460
1454 1456 1469 1477 1476 1474 1457 1446 1445 1450 1454 1443 1443 1444 1447 1449 1455 1452 1450 1452 1454 1456 1458 1461 1463 1467 1470 1472 1475 1477 1478 1479 1480 1479 1479 1477 1475 1473 1470 1467 1464 1461 1457 1452
1458 1461 1466 1471 1470 1463 1448 1443 1446 1457 1450 1440 1439 1440 1443 1445 1447 1447 1448 1450 1452 1454 1457 1459 1462 1464 1467 1470 1472 1473 1474 1475 1475 1474 1473 1471 1469 1467 1464 1460 1457 1453 1449 1444
1448 1457 1462 1465 1467 1460 1440 1442 1445 1441 1437 1437 1438 1439 1441 1442 1444 1445 1447 1449 1451 1453 1455 1458 1460 1462 1465 1467 1468 1469 1470 1470 1470 1468 1467 1465 1463 1460 1457 1453 1449 1445 1441 1436
1438 1437 1441 1444 1442 1434 1432 1433 1433 1434 1435 1436 1437 1438 1440 1441 1442 1444 1446 1448 1450 1452 1454 1456 1458 1461 1462 1464 1465 1465 1465 1465 1463 1462 1460 1458 1455 1452 1449 1445 1441 1437 1433 1428
1432 1430 1434 1436 1433 1430 1429 1429 1431 1432 1433 1434 1436 1437 1438 1439 1440 1442 1444 1446 1448 1450 1453 1455 1457 1458 1459 1460 1461 1461 1460 1459 1457 1455 1453 1451 1448 1444 1441 1437 1433 1428 1424 1419
1422 1426 1429 1430 1427 1426 1426 1426 1428 1429 1431 1433 1434 1435 1436 1437 1439 1440 1442 1444 1446 1449 1451 1453 1454 1455 1456 1456 1456 1456 1455 1453 1451 1449 1446 1443 1440 1436 1432 1428 1425 1420 1416 1412
1417 1419 1423 1423 1420 1421 1421 1422 1424 1426 1428 1430 1431 1433 1434 1435 1437 1439 1440 1442 1444 1447 1448 1450 1451 1452 1452 1452 1451 1451 1449 1447 1444 1441 1438 1435 1431 1427 1423 1418 1414 1410 1407 1402